Tracking 31027 objects as of 19-Jul-2025
HD Live streaming from Space Station
objects crossing your sky now

STARLINK-31731

Track STARLINK-31731 now!
10-day predictions


NORAD ID: 59498
Int'l Code: 2024-071Q
Perigee: 489.3 km
Apogee: 491.0 km
Inclination: 43.0 °
Period: 94.3 minutes
Semi major axis: 6861 km
RCS: Unknown
Launch date: April 13, 2024
Source: United States (US)
Launch site: AIR FORCE EASTERN TEST RANGE (AFETR)
Your satellite tracking list
Your tracking list is empty




NASA's NSSDC Master Catalog

Two Line Element Set (TLE):
1 59498U 24071Q   25199.50292824  .00000392  00000-0  23777-4 0  9991
2 59498  42.9998 221.9749 0001203 276.1049  83.9665 15.27585780 72393
Source of the keplerian elements: AFSPC